QPF
0.02 0.02 0.02 0.03 0.03 0.05 0.08 0.09 0.09 0.08 0.06 0.06 0.05 0.03 0.03 0.03 0.02 0.02 0.02 0.03 0.04 0.05 0.04 0.03 0.04 0.04 0.05 0.05 0.04 0.04 0.05 0.05 0.04 0.02 0.01 0.02 0.02 0.02 0.02 0.04 0.04 0.05 0.06
0.03 0.04 0.04 0.04 0.05 0.07 0.10 0.11 0.11 0.08 0.06 0.05 0.05 0.04 0.03 0.03 0.02 0.02 0.02 0.02 0.03 0.04 0.04 0.04 0.04 0.04 0.06 0.06 0.05 0.06 0.07 0.06 0.04 0.03 0.02 0.01 0.02 0.02 0.02 0.03 0.03 0.03 0.04
0.04 0.05 0.04 0.05 0.08 0.11 0.11 0.10 0.10 0.07 0.06 0.05 0.03 0.03 0.03 0.02 0.02 0.02 0.02 0.03 0.03 0.03 0.05 0.06 0.07 0.07 0.07 0.07 0.08 0.06 0.05 0.04 0.04 0.03 0.02 0.02 0.01 0.01 0.03 0.04 0.05 0.04 0.03
0.03 0.05 0.05 0.05 0.07 0.10 0.12 0.10 0.08 0.06 0.05 0.04 0.03 0.03 0.03 0.03 0.02 0.02 0.03 0.03 0.03 0.03 0.02 0.03 0.05 0.05 0.06 0.06 0.06 0.06 0.04 0.04 0.04 0.03 0.02 0.02 0.02 0.04 0.05 0.07 0.07 0.07 0.07
0.03 0.03 0.05 0.06 0.06 0.06 0.06 0.06 0.05 0.06 0.05 0.04 0.03 0.03 0.03 0.03 0.03 0.04 0.04 0.03 0.03 0.03 0.03 0.03 0.03 0.03 0.03 0.04 0.03 0.05 0.05 0.05 0.04 0.03 0.03 0.02 0.02 0.05 0.05 0.05 0.05 0.06 0.07
0.03 0.04 0.05 0.06 0.05 0.05 0.06 0.06 0.06 0.05 0.05 0.04 0.03 0.03 0.04 0.03 0.03 0.03 0.03 0.04 0.03 0.03 0.03 0.04 0.03 0.02 0.02 0.02 0.03 0.03 0.04 0.04 0.05 0.04 0.03 0.03 0.03 0.04 0.04 0.03 0.03 0.04 0.05
0.03 0.03 0.05 0.06 0.04 0.06 0.07 0.07 0.05 0.06 0.04 0.04 0.05 0.04 0.04 0.04 0.03 0.03 0.02 0.03 0.03 0.03 0.04 0.04 0.04 0.03 0.03 0.03 0.03 0.03 0.03 0.02 0.02 0.03 0.03 0.02 0.02 0.03 0.04 0.02 0.03 0.04 0.04
0.03 0.03 0.05 0.05 0.04 0.04 0.06 0.05 0.04 0.04 0.04 0.04 0.04 0.04 0.05 0.04 0.02 0.02 0.02 0.02 0.02 0.03 0.03 0.04 0.05 0.05 0.04 0.04 0.05 0.05 0.04 0.03 0.02 0.02 0.02 0.02 0.02 0.02 0.03 0.02 0.03 0.03 0.03
0.03 0.04 0.04 0.03 0.04 0.04 0.04 0.03 0.02 0.02 0.02 0.03 0.03 0.03 0.03 0.03 0.02 0.01 0.01 0.02 0.02 0.02 0.02 0.03 0.04 0.06 0.05 0.05 0.06 0.06 0.06 0.06 0.04 0.03 0.03 0.02 0.01 0.01 0.01 0.01 0.03 0.03 0.03
0.03 0.04 0.03 0.03 0.03 0.03 0.02 0.03 0.03 0.02 0.02 0.03 0.03 0.03 0.02 0.01 0.01 0.01 0.01 0.01 0.01 0.02 0.02 0.04 0.05 0.06 0.06 0.06 0.06 0.07 0.08 0.07 0.06 0.05 0.04 0.02 0.02 0.01 0.01 0.01 0.03 0.04 0.04
0.02 0.02 0.02 0.02 0.02 0.02 0.02 0.03 0.03 0.03 0.03 0.03 0.03 0.03 0.03 0.02 0.02 0.02 0.02 0.01 0.01 0.02 0.03 0.03 0.04 0.03 0.02 0.02 0.03 0.05 0.05 0.06 0.06 0.05 0.04 0.04 0.03 0.03 0.03 0.02 0.02 0.03 0.04
0.01 0.02 0.02 0.02 0.02 0.02 0.02 0.03 0.03 0.03 0.03 0.04 0.04 0.05 0.05 0.06 0.05 0.05 0.04 0.03 0.03 0.03 0.03 0.03 0.03 0.02 0.01 0.01 0.01 0.02 0.04 0.05 0.06 0.06 0.05 0.04 0.04 0.03 0.03 0.02 0.03 0.03 0.03
0.03 0.04 0.04 0.03 0.03 0.03 0.03 0.03 0.03 0.03 0.04 0.03 0.04 0.06 0.07 0.08 0.08 0.08 0.06 0.05 0.04 0.03 0.03 0.03 0.03 0.02 0.01 0.01 0.02 0.03 0.04 0.04 0.05 0.06 0.05 0.03 0.03 0.03 0.04 0.04 0.03 0.03 0.02
0.05 0.05 0.05 0.04 0.04 0.04 0.04 0.04 0.05 0.05 0.04 0.03 0.03 0.04 0.06 0.07 0.07 0.06 0.06 0.06 0.05 0.05 0.04 0.03 0.03 0.02 0.01 0.02 0.03 0.03 0.03 0.04 0.05 0.05 0.05 0.03 0.03 0.03 0.03 0.02 0.03 0.03 0.03
0.05 0.05 0.05 0.05 0.04 0.04 0.05 0.06 0.06 0.06 0.05 0.04 0.03 0.03 0.03 0.05 0.05 0.05 0.05 0.06 0.05 0.04 0.04 0.03 0.02 0.02 0.02 0.02 0.03 0.03 0.03 0.04 0.05 0.04 0.04 0.03 0.02 0.02 0.03 0.02 0.02 0.02 0.02
0.04 0.03 0.04 0.04 0.05 0.05 0.05 0.05 0.05 0.06 0.06 0.05 0.06 0.05 0.05 0.05 0.06 0.04 0.04 0.04 0.05 0.05 0.03 0.02 0.02 0.02 0.02 0.03 0.03 0.03 0.03 0.03 0.03 0.04 0.04 0.03 0.02 0.02 0.02 0.02 0.02 0.02 0.03
0.04 0.04 0.04 0.04 0.04 0.05 0.05 0.05 0.05 0.04 0.04 0.04 0.04 0.04 0.04 0.04 0.04 0.03 0.03 0.03 0.03 0.03 0.02 0.02 0.02 0.02 0.02 0.02 0.02 0.03 0.03 0.03 0.03 0.04 0.03 0.02 0.03 0.03 0.03 0.03 0.03 0.03 0.03
0.03 0.03 0.03 0.04 0.04 0.05 0.04 0.03 0.03 0.02 0.02 0.02 0.03 0.03 0.02 0.02 0.02 0.02 0.02 0.02 0.02 0.02 0.02 0.02 0.02 0.02 0.02 0.01 0.02 0.03 0.04 0.03 0.04 0.04 0.04 0.03 0.03 0.03 0.03 0.03 0.04 0.04 0.04
0.03 0.03 0.03 0.04 0.03 0.03 0.03 0.02 0.03 0.02 0.02 0.02 0.02 0.02 0.02 0.02 0.02 0.01 0.01 0.01 0.01 0.01 0.02 0.02 0.02 0.02 0.02 0.02 0.02 0.02 0.03 0.04 0.04 0.05 0.04 0.03 0.03 0.03 0.03 0.03 0.04 0.04 0.03
0.03 0.03 0.02 0.03 0.03 0.02 0.02 0.03 0.04 0.04 0.03 0.03 0.03 0.03 0.03 0.02 0.01 0.01 0.01 0.01 0.01 0.01 0.02 0.02 0.02 0.02 0.03 0.03 0.03 0.03 0.04 0.04 0.04 0.04 0.03 0.02 0.02 0.02 0.03 0.03 0.04 0.04 0.04
0.03 0.02 0.02 0.02 0.02 0.02 0.02 0.03 0.03 0.03 0.03 0.03 0.03 0.04 0.04 0.04 0.03 0.02 0.02 0.02 0.02 0.02 0.02 0.02 0.02 0.02 0.03 0.03 0.03 0.03 0.04 0.05 0.04 0.04 0.02 0.02 0.02 0.02 0.02 0.02 0.03 0.04 0.04
0.03 0.02 0.02 0.02 0.03 0.03 0.03 0.03 0.03 0.03 0.04 0.04 0.04 0.05 0.05 0.05 0.05 0.03 0.03 0.04 0.04 0.04 0.03 0.03 0.03 0.03 0.03 0.03 0.03 0.03 0.04 0.04 0.04 0.03 0.02 0.02 0.02 0.02 0.02 0.02 0.02 0.03 0.03
0.04 0.02 0.02 0.03 0.04 0.05 0.05 0.05 0.04 0.03 0.04 0.05 0.05 0.04 0.04 0.05 0.05 0.04 0.04 0.04 0.05 0.05 0.04 0.04 0.04 0.04 0.04 0.03 0.03 0.03 0.03 0.03 0.04 0.04 0.03 0.03 0.03 0.02 0.02 0.02 0.02 0.02 0.02
0.05 0.03 0.03 0.03 0.05 0.07 0.06 0.04 0.04 0.04 0.04 0.06 0.06 0.04 0.04 0.05 0.04 0.03 0.03 0.04 0.05 0.05 0.05 0.05 0.05 0.04 0.04 0.03 0.02 0.03 0.03 0.03 0.04 0.04 0.03 0.03 0.03 0.03 0.02 0.01 0.01 0.02 0.02
0.05 0.05 0.04 0.03 0.04 0.05 0.04 0.03 0.04 0.05 0.07 0.08 0.06 0.04 0.04 0.05 0.04 0.03 0.03 0.03 0.04 0.05 0.05 0.05 0.05 0.04 0.04 0.03 0.02 0.02 0.03 0.03 0.03 0.03 0.03 0.02 0.03 0.03 0.02 0.01 0.01 0.01 0.02
0.04 0.04 0.04 0.04 0.04 0.03 0.03 0.03 0.04 0.05 0.07 0.07 0.06 0.05 0.05 0.06 0.06 0.04 0.02 0.02 0.03 0.02 0.02 0.02 0.02 0.02 0.02 0.02 0.02 0.02 0.02 0.03 0.03 0.03 0.02 0.02 0.02 0.03 0.02 0.02 0.01 0.01 0.02
MSLP
1012.62 1013.03 1013.45 1013.84 1014.20 1014.52 1014.78 1015.00 1015.19 1015.37 1015.55 1015.75 1015.96 1016.19 1016.42 1016.63 1016.81 1016.93 1017.00 1017.00 1016.95 1016.85 1016.75 1016.64 1016.54 1016.47 1016.41 1016.36 1016.30 1016.20 1016.05 1015.83 1015.55 1015.21 1014.83 1014.44 1014.08 1013.76 1013.52 1013.37 1013.31 1013.35 1013.46
1012.52 1012.91 1013.31 1013.70 1014.07 1014.41 1014.70 1014.94 1015.16 1015.36 1015.55 1015.75 1015.96 1016.18 1016.39 1016.60 1016.77 1016.89 1016.96 1016.97 1016.93 1016.86 1016.76 1016.67 1016.58 1016.51 1016.47 1016.43 1016.38 1016.30 1016.16 1015.97 1015.70 1015.36 1014.97 1014.55 1014.13 1013.75 1013.42 1013.17 1013.02 1012.96 1013.00
1012.42 1012.78 1013.16 1013.55 1013.92 1014.26 1014.57 1014.84 1015.08 1015.30 1015.51 1015.71 1015.91 1016.11 1016.31 1016.50 1016.66 1016.78 1016.85 1016.88 1016.86 1016.81 1016.74 1016.67 1016.62 1016.58 1016.55 1016.54 1016.51 1016.46 1016.36 1016.19 1015.94 1015.62 1015.23 1014.79 1014.34 1013.90 1013.51 1013.19 1012.95 1012.80 1012.76
1012.22 1012.56 1012.93 1013.31 1013.69 1014.04 1014.37 1014.67 1014.94 1015.18 1015.41 1015.62 1015.82 1016.02 1016.20 1016.37 1016.52 1016.64 1016.71 1016.76 1016.76 1016.74 1016.71 1016.68 1016.66 1016.65 1016.66 1016.67 1016.68 1016.66 1016.58 1016.44 1016.22 1015.92 1015.55 1015.12 1014.66 1014.19 1013.76 1013.38 1013.07 1012.86 1012.76
1011.90 1012.23 1012.59 1012.96 1013.34 1013.71 1014.07 1014.41 1014.71 1014.99 1015.25 1015.49 1015.70 1015.90 1016.09 1016.25 1016.39 1016.51 1016.59 1016.65 1016.68 1016.70 1016.70 1016.71 1016.72 1016.74 1016.78 1016.82 1016.84 1016.84 1016.79 1016.67 1016.48 1016.21 1015.87 1015.45 1015.00 1014.54 1014.09 1013.69 1013.35 1013.10 1012.95
1011.44 1011.76 1012.11 1012.49 1012.88 1013.28 1013.67 1014.05 1014.41 1014.74 1015.04 1015.32 1015.57 1015.79 1015.98 1016.15 1016.30 1016.42 1016.51 1016.59 1016.65 1016.69 1016.73 1016.76 1016.80 1016.85 1016.90 1016.95 1016.98 1016.99 1016.95 1016.85 1016.67 1016.43 1016.11 1015.73 1015.31 1014.86 1014.43 1014.04 1013.70 1013.45 1013.28
1010.87 1011.18 1011.53 1011.91 1012.32 1012.75 1013.18 1013.61 1014.03 1014.42 1014.79 1015.11 1015.40 1015.66 1015.88 1016.06 1016.22 1016.36 1016.47 1016.57 1016.65 1016.72 1016.79 1016.85 1016.91 1016.97 1017.03 1017.07 1017.10 1017.09 1017.05 1016.94 1016.78 1016.55 1016.25 1015.90 1015.51 1015.11 1014.72 1014.36 1014.05 1013.82 1013.67
1010.21 1010.51 1010.85 1011.24 1011.68 1012.14 1012.62 1013.11 1013.58 1014.04 1014.47 1014.85 1015.19 1015.48 1015.74 1015.95 1016.14 1016.30 1016.44 1016.56 1016.68 1016.78 1016.87 1016.96 1017.04 1017.11 1017.16 1017.19 1017.20 1017.18 1017.11 1016.99 1016.81 1016.58 1016.29 1015.97 1015.61 1015.26 1014.91 1014.60 1014.34 1014.15 1014.03
1009.47 1009.76 1010.11 1010.52 1010.97 1011.47 1011.99 1012.53 1013.07 1013.58 1014.06 1014.50 1014.89 1015.23 1015.52 1015.77 1015.99 1016.19 1016.36 1016.52 1016.68 1016.82 1016.95 1017.07 1017.17 1017.25 1017.31 1017.33 1017.32 1017.27 1017.16 1017.02 1016.82 1016.57 1016.28 1015.96 1015.63 1015.31 1015.01 1014.75 1014.54 1014.40 1014.33
1008.66 1008.95 1009.31 1009.73 1010.21 1010.74 1011.30 1011.89 1012.47 1013.03 1013.56 1014.04 1014.48 1014.86 1015.19 1015.48 1015.74 1015.98 1016.20 1016.41 1016.61 1016.81 1016.99 1017.16 1017.29 1017.40 1017.47 1017.49 1017.47 1017.39 1017.26 1017.08 1016.85 1016.58 1016.27 1015.95 1015.63 1015.33 1015.05 1014.83 1014.67 1014.57 1014.53
1007.75 1008.06 1008.43 1008.88 1009.39 1009.95 1010.55 1011.16 1011.78 1012.38 1012.95 1013.47 1013.94 1014.35 1014.73 1015.06 1015.36 1015.65 1015.93 1016.20 1016.47 1016.73 1016.97 1017.19 1017.39 1017.54 1017.63 1017.67 1017.65 1017.57 1017.42 1017.22 1016.96 1016.66 1016.34 1016.00 1015.67 1015.37 1015.11 1014.90 1014.76 1014.69 1014.67
1006.74 1007.07 1007.47 1007.95 1008.49 1009.09 1009.72 1010.37 1011.01 1011.64 1012.24 1012.79 1013.29 1013.75 1014.16 1014.54 1014.89 1015.23 1015.57 1015.91 1016.24 1016.57 1016.89 1017.18 1017.43 1017.63 1017.78 1017.85 1017.86 1017.78 1017.64 1017.43 1017.16 1016.84 1016.50 1016.15 1015.80 1015.49 1015.22 1015.02 1014.87 1014.80 1014.78
1005.63 1005.99 1006.44 1006.96 1007.54 1008.17 1008.84 1009.52 1010.19 1010.85 1011.47 1012.06 1012.60 1013.09 1013.54 1013.97 1014.38 1014.78 1015.18 1015.57 1015.97 1016.37 1016.75 1017.10 1017.42 1017.68 1017.88 1018.00 1018.04 1018.01 1017.89 1017.69 1017.43 1017.12 1016.78 1016.42 1016.06 1015.74 1015.45 1015.23 1015.06 1014.96 1014.91
1004.47 1004.88 1005.37 1005.94 1006.56 1007.24 1007.94 1008.66 1009.37 1010.06 1010.72 1011.34 1011.92 1012.46 1012.96 1013.44 1013.90 1014.35 1014.80 1015.25 1015.70 1016.15 1016.57 1016.97 1017.34 1017.65 1017.90 1018.08 1018.18 1018.19 1018.12 1017.97 1017.75 1017.47 1017.15 1016.80 1016.45 1016.11 1015.81 1015.56 1015.36 1015.22 1015.12
1003.32 1003.78 1004.33 1004.94 1005.62 1006.34 1007.09 1007.85 1008.60 1009.34 1010.04 1010.71 1011.35 1011.94 1012.50 1013.03 1013.54 1014.03 1014.52 1015.00 1015.47 1015.94 1016.39 1016.82 1017.21 1017.55 1017.85 1018.08 1018.23 1018.31 1018.31 1018.23 1018.07 1017.85 1017.57 1017.26 1016.93 1016.60 1016.29 1016.02 1015.78 1015.59 1015.43
1002.29 1002.79 1003.39 1004.05 1004.77 1005.54 1006.33 1007.14 1007.94 1008.73 1009.50 1010.23 1010.92 1011.57 1012.19 1012.77 1013.32 1013.85 1014.36 1014.85 1015.33 1015.79 1016.23 1016.65 1017.04 1017.40 1017.72 1017.98 1018.19 1018.34 1018.42 1018.42 1018.35 1018.21 1018.01 1017.76 1017.48 1017.18 1016.88 1016.58 1016.31 1016.07 1015.85
1001.44 1001.98 1002.60 1003.31 1004.07 1004.87 1005.71 1006.56 1007.42 1008.27 1009.09 1009.89 1010.64 1011.36 1012.03 1012.67 1013.26 1013.81 1014.32 1014.80 1015.26 1015.69 1016.10 1016.49 1016.87 1017.22 1017.54 1017.84 1018.10 1018.31 1018.46 1018.56 1018.59 1018.55 1018.44 1018.27 1018.05 1017.79 1017.51 1017.22 1016.93 1016.64 1016.37
1000.81 1001.37 1002.02 1002.74 1003.53 1004.36 1005.24 1006.13 1007.03 1007.93 1008.82 1009.67 1010.49 1011.26 1011.99 1012.66 1013.28 1013.84 1014.36 1014.83 1015.25 1015.65 1016.02 1016.37 1016.72 1017.05 1017.38 1017.70 1017.99 1018.27 1018.50 1018.68 1018.81 1018.87 1018.85 1018.77 1018.62 1018.41 1018.16 1017.88 1017.58 1017.27 1016.95
1000.39 1000.95 1001.61 1002.34 1003.14 1004.00 1004.89 1005.82 1006.75 1007.69 1008.62 1009.52 1010.39 1011.21 1011.97 1012.68 1013.32 1013.90 1014.41 1014.86 1015.27 1015.64 1015.98 1016.31 1016.63 1016.96 1017.29 1017.63 1017.96 1018.28 1018.58 1018.84 1019.05 1019.19 1019.26 1019.25 1019.17 1019.01 1018.80 1018.54 1018.24 1017.91 1017.57
1000.12 1000.68 1001.34 1002.07 1002.88 1003.74 1004.65 1005.59 1006.54 1007.50 1008.45 1009.38 1010.27 1011.12 1011.91 1012.64 1013.30 1013.89 1014.41 1014.87 1015.28 1015.64 1015.99 1016.31 1016.64 1016.98 1017.33 1017.69 1018.06 1018.43 1018.77 1019.09 1019.35 1019.55 1019.68 1019.73 1019.69 1019.58 1019.40 1019.16 1018.87 1018.55 1018.20
999.92 1000.49 1001.15 1001.88 1002.70 1003.56 1004.47 1005.40 1006.36 1007.32 1008.27 1009.19 1010.09 1010.95 1011.75 1012.49 1013.17 1013.78 1014.32 1014.81 1015.25 1015.66 1016.03 1016.40 1016.77 1017.14 1017.53 1017.93 1018.34 1018.74 1019.12 1019.46 1019.75 1019.98 1020.14 1020.21 1020.20 1020.11 1019.95 1019.73 1019.46 1019.15 1018.82
999.71 1000.30 1000.97 1001.72 1002.54 1003.41 1004.31 1005.24 1006.18 1007.12 1008.05 1008.95 1009.83 1010.67 1011.47 1012.22 1012.92 1013.56 1014.15 1014.70 1015.20 1015.68 1016.13 1016.58 1017.02 1017.46 1017.91 1018.36 1018.80 1019.22 1019.62 1019.96 1020.25 1020.47 1020.62 1020.69 1020.67 1020.59 1020.44 1020.24 1020.00 1019.72 1019.41
999.44 1000.06 1000.77 1001.55 1002.39 1003.27 1004.18 1005.09 1006.01 1006.91 1007.81 1008.67 1009.52 1010.33 1011.12 1011.87 1012.59 1013.27 1013.93 1014.55 1015.15 1015.73 1016.29 1016.85 1017.39 1017.92 1018.45 1018.95 1019.42 1019.86 1020.25 1020.57 1020.83 1021.02 1021.12 1021.16 1021.12 1021.03 1020.88 1020.70 1020.48 1020.24 1019.98
999.10 999.77 1000.54 1001.37 1002.24 1003.15 1004.06 1004.97 1005.86 1006.73 1007.58 1008.40 1009.21 1009.99 1010.76 1011.51 1012.26 1012.99 1013.71 1014.43 1015.14 1015.83 1016.52 1017.20 1017.85 1018.48 1019.08 1019.64 1020.14 1020.57 1020.94 1021.23 1021.43 1021.56 1021.62 1021.60 1021.53 1021.42 1021.28 1021.11 1020.93 1020.74 1020.54
998.72 999.46 1000.29 1001.18 1002.11 1003.04 1003.97 1004.87 1005.75 1006.59 1007.40 1008.19 1008.95 1009.71 1010.47 1011.23 1012.00 1012.78 1013.58 1014.39 1015.20 1016.02 1016.82 1017.61 1018.37 1019.09 1019.75 1020.35 1020.86 1021.29 1021.62 1021.86 1022.01 1022.08 1022.07 1022.01 1021.91 1021.78 1021.64 1021.50 1021.36 1021.22 1021.09
998.35 999.17 1000.07 1001.03 1002.00 1002.97 1003.91 1004.82 1005.69 1006.51 1007.29 1008.05 1008.80 1009.54 1010.30 1011.07 1011.88 1012.71 1013.57 1014.46 1015.37 1016.28 1017.19 1018.07 1018.91 1019.69 1020.40 1021.01 1021.53 1021.94 1022.24 1022.43 1022.53 1022.54 1022.48 1022.38 1022.25 1022.12 1021.99 1021.87 1021.77 1021.69 1021.62
Thickness
5708 5707 5705 5703 5701 5699 5697 5696 5694 5692 5691 5689 5688 5687 5688 5687 5686 5686 5687 5687 5686 5686 5686 5687 5687 5687 5689 5690 5689 5688 5687 5685 5682 5685 5686 5685 5682 5682 5682 5682 5683 5682 5682
5701 5699 5697 5696 5694 5692 5691 5689 5688 5687 5686 5684 5683 5682 5683 5682 5681 5680 5681 5682 5682 5681 5681 5682 5682 5683 5682 5683 5683 5683 5682 5680 5679 5677 5679 5680 5677 5678 5678 5677 5679 5680 5679
5692 5690 5688 5687 5686 5684 5683 5682 5681 5681 5680 5679 5678 5678 5677 5676 5675 5676 5676 5676 5677 5677 5677 5677 5678 5678 5676 5677 5677 5678 5678 5679 5676 5675 5675 5675 5675 5675 5674 5674 5675 5674 5675
5683 5682 5680 5679 5678 5677 5676 5675 5675 5674 5674 5673 5673 5673 5671 5671 5670 5671 5671 5671 5671 5672 5672 5673 5673 5673 5672 5672 5672 5672 5673 5672 5672 5671 5672 5672 5671 5672 5670 5670 5670 5670 5670
5674 5673 5672 5671 5670 5669 5668 5668 5667 5667 5667 5666 5666 5666 5666 5665 5666 5666 5666 5666 5666 5666 5668 5668 5669 5668 5666 5666 5668 5668 5668 5668 5668 5667 5667 5667 5666 5665 5665 5666 5665 5665 5666
5664 5664 5664 5663 5662 5661 5660 5660 5659 5659 5659 5659 5660 5660 5660 5661 5658 5657 5657 5660 5661 5661 5662 5663 5664 5663 5661 5659 5660 5660 5660 5661 5662 5661 5661 5661 5659 5661 5660 5660 5660 5659 5658
5655 5655 5655 5655 5654 5653 5653 5652 5651 5651 5651 5650 5651 5652 5652 5652 5650 5649 5649 5652 5654 5655 5655 5656 5659 5661 5659 5659 5657 5655 5654 5654 5653 5655 5656 5656 5655 5656 5654 5654 5653 5653 5652
5647 5647 5647 5647 5646 5646 5645 5644 5643 5643 5643 5643 5643 5644 5644 5644 5642 5641 5641 5644 5647 5648 5649 5651 5652 5653 5654 5653 5653 5654 5654 5654 5652 5651 5651 5651 5651 5650 5648 5648 5647 5647 5647
5640 5640 5640 5639 5639 5638 5637 5637 5636 5636 5636 5636 5636 5637 5637 5636 5634 5633 5632 5638 5641 5642 5644 5645 5646 5647 5645 5644 5646 5648 5649 5649 5648 5646 5644 5644 5642 5642 5642 5642 5643 5642 5642
5634 5633 5633 5632 5631 5631 5630 5630 5629 5628 5629 5629 5630 5630 5630 5630 5627 5626 5624 5632 5635 5636 5638 5639 5638 5639 5638 5637 5640 5641 5642 5643 5643 5643 5640 5639 5639 5638 5636 5636 5638 5637 5637
5627 5626 5624 5624 5624 5624 5624 5623 5622 5622 5622 5622 5623 5624 5624 5623 5620 5619 5618 5623 5627 5629 5632 5634 5635 5631 5630 5629 5631 5634 5634 5634 5636 5637 5638 5638 5637 5636 5634 5633 5633 5633 5632
5619 5619 5617 5617 5617 5618 5617 5616 5616 5617 5617 5617 5616 5616 5618 5617 5615 5614 5613 5613 5615 5620 5624 5627 5627 5624 5622 5622 5624 5625 5625 5625 5630 5632 5633 5633 5633 5631 5630 5629 5627 5626 5625
5612 5611 5610 5610 5610 5610 5610 5610 5610 5610 5611 5612 5612 5612 5612 5612 5611 5608 5607 5607 5608 5611 5616 5616 5616 5615 5615 5617 5617 5617 5618 5622 5625 5626 5627 5627 5626 5625 5624 5623 5621 5620 5618
5605 5604 5604 5604 5604 5603 5602 5603 5603 5604 5604 5605 5606 5606 5606 5607 5606 5606 5605 5604 5603 5605 5608 5608 5607 5608 5610 5611 5612 5614 5616 5618 5619 5620 5621 5621 5620 5619 5618 5618 5616 5616 5615
5599 5599 5598 5598 5598 5596 5596 5595 5596 5595 5595 5595 5597 5598 5599 5599 5598 5595 5597 5599 5601 5602 5601 5603 5605 5606 5608 5609 5610 5611 5611 5612 5612 5613 5614 5614 5613 5613 5612 5612 5610 5611 5610
5592 5592 5593 5593 5592 5592 5591 5590 5587 5587 5585 5584 5583 5584 5588 5587 5587 5586 5586 5587 5589 5589 5592 5598 5600 5602 5604 5605 5605 5606 5606 5606 5606 5607 5607 5607 5607 5606 5606 5605 5605 5604 5603
5586 5586 5587 5587 5587 5586 5586 5585 5585 5582 5579 5578 5577 5577 5577 5578 5578 5578 5579 5579 5581 5581 5587 5593 5596 5597 5599 5600 5601 5601 5601 5601 5600 5600 5600 5600 5600 5599 5598 5598 5597 5597 5597
5582 5581 5581 5581 5582 5581 5581 5581 5581 5581 5580 5579 5575 5572 5571 5571 5572 5572 5572 5573 5579 5581 5586 5590 5591 5593 5593 5594 5595 5595 5595 5595 5595 5595 5594 5594 5593 5592 5591 5591 5591 5591 5590
5577 5577 5577 5577 5577 5576 5576 5576 5576 5575 5575 5575 5574 5571 5567 5567 5566 5566 5567 5574 5579 5581 5583 5584 5586 5588 5588 5588 5588 5588 5588 5588 5588 5588 5588 5587 5587 5586 5585 5585 5585 5582 5583
5571 5568 5568 5571 5571 5570 5570 5570 5570 5570 5570 5571 5571 5570 5568 5567 5568 5567 5568 5571 5573 5576 5578 5579 5580 5581 5581 5581 5581 5581 5581 5581 5582 5582 5582 5582 5581 5580 5579 5579 5579 5578 5578
5568 5566 5561 5564 5565 5565 5566 5566 5567 5567 5566 5566 5566 5565 5561 5564 5565 5565 5566 5566 5567 5569 5570 5572 5572 5573 5574 5574 5575 5575 5575 5576 5576 5575 5575 5575 5575 5574 5574 5574 5573 5572 5573
5563 5562 5561 5561 5561 5561 5562 5563 5563 5563 5562 5562 5562 5560 5555 5558 5560 5560 5560 5561 5561 5562 5563 5564 5565 5566 5567 5567 5568 5568 5569 5569 5569 5569 5568 5568 5568 5568 5568 5568 5567 5566 5566
5559 5559 5558 5557 5557 5555 5557 5558 5558 5558 5558 5557 5557 5555 5554 5554 5555 5554 5555 5555 5555 5555 5555 5556 5557 5558 5558 5558 5559 5560 5562 5562 5561 5561 5561 5561 5561 5561 5560 5560 5560 5559 5559
5555 5554 5554 5554 5553 5553 5553 5553 5554 5553 5553 5552 5551 5550 5550 5549 5549 5549 5549 5549 5549 5548 5548 5549 5549 5549 5549 5550 5552 5553 5552 5552 5552 5552 5552 5552 5553 5553 5553 5553 5553 5552 5551
5551 5551 5551 5550 5550 5549 5549 5549 5549 5548 5547 5546 5545 5544 5544 5544 5543 5543 5543 5542 5542 5542 5542 5542 5542 5542 5542 5542 5543 5544 5542 5542 5542 5542 5543 5544 5545 5545 5545 5546 5546 5545 5544
5549 5548 5547 5546 5545 5544 5544 5544 5544 5543 5542 5541 5540 5539 5539 5538 5538 5538 5537 5536 5536 5536 5535 5535 5535 5535 5535 5535 5535 5534 5533 5533 5533 5533 5535 5537 5537 5538 5538 5539 5539 5539 5538